Location: Newark
(25.6108°S, 54.5803°W)
Time: 03:09:09
(UTC+00:00)

Tiros 1 - Pass Details

Date: 29 October 2020
Orbit: 630 x 664 km, 48.4° (Epoch: 30 November)

Event Time Altitude Azimuth Distance (km) Brightness Sun altitude
Rises 00:42:23 0° 213° (SSW) 3,014 11.5 -34.8°
Reaches altitude 10° 00:45:08 10° 200° (SSW) 2,094 10.4 -35.3°
Enters shadow 00:46:30 16° 187° (S) 1,708 9.7 -35.5°
